This demonstration page uses our WeatherBlox Daily Observations layout. Learn more.

Left ArrowRight Arrow

Hourly Observations for June 19, 2015

Temp ( °F °C ) Dew Point ( °F °C ) Humidity (%) Winds ( mph kmh ) Pressure ( in mb ) Visibility ( mi km ) Precip ( " mm )
12:15 am 00:15 Clear 73 23 73 23 100 100 Calm 29.97 1015 10 16 0.00 0.00
12:35 am 00:35 Clear 73 23 73 23 100 100 Calm 29.97 1015 10 16 0.00 0.00
12:55 am 00:55 Clear 73 23 73 23 100 100 W 3 6 29.97 1015 10 16 0.00 0.00
1:15 am 01:15 Mostly Cloudy 73 23 73 23 100 100 WNW 20 31 30.00 1016 10 16 0.00 0.00
1:35 am 01:35 Mostly Cloudy with Light Rain 77 25 68 20 74 74 WNW 13 20 30.00 1016 10 16 0.00 0.00
1:55 am 01:55 Partly Cloudy with Light Rain 73 23 70 21 89 89 W 6 9 30.00 1016 10 16 0.00 0.00
2:15 am 02:15 Partly Cloudy 73 23 70 21 89 89 W 3 6 29.97 1015 10 16 0.01 0.25
2:35 am 02:35 Mostly Cloudy 72 22 72 22 100 100 SSW 5 7 29.97 1015 10 16 0.01 0.25
2:55 am 02:55 Partly Cloudy 72 22 72 22 100 100 Calm 29.97 1015 10 16 0.01 0.25
3:15 am 03:15 Mostly Cloudy 72 22 70 21 94 94 W 5 7 29.97 1015 10 16 0.00 0.00
3:35 am 03:35 Partly Cloudy 72 22 70 21 94 94 S 7 11 29.97 1015 10 16 0.00 0.00
3:55 am 03:55 Partly Cloudy 70 21 70 21 100 100 SSW 6 9 29.94 1014 10 16 0.00 0.00
4:15 am 04:15 Partly Cloudy 72 22 70 21 94 94 Calm 29.94 1014 10 16 0.00 0.00
4:35 am 04:35 Mostly Cloudy 72 22 70 21 94 94 S 6 9 29.94 1014 10 16 0.00 0.00
4:55 am 04:55 Cloudy with Light Rain 70 21 70 21 100 100 SSW 7 11 29.97 1015 10 16 0.00 0.00
5:15 am 05:15 Cloudy 72 22 70 21 94 94 Calm 29.94 1014 10 16 0.00 0.00
5:35 am 05:35 Cloudy with Drizzle 72 22 70 21 94 94 W 3 6 29.97 1015 10 16 0.00 0.00
5:55 am 05:55 Mostly Cloudy 72 22 70 21 94 94 Calm 29.97 1015 10 16 0.00 0.00
6:15 am 06:15 Partly Cloudy 72 22 70 21 94 94 S 3 6 29.97 1015 10 16 0.00 0.00
6:35 am 06:35 Partly Cloudy 72 22 70 21 94 94 Calm 29.97 1015 10 16 0.00 0.00
6:55 am 06:55 Sunny 72 22 70 21 94 94 SW 5 7 29.97 1015 10 16 0.00 0.00
7:15 am 07:15 Sunny 72 22 70 21 94 94 SW 5 7 30.00 1016 10 16 0.00 0.00
7:35 am 07:35 Sunny 73 23 70 21 89 89 SW 5 7 30.00 1016 10 16 0.00 0.00
7:55 am 07:55 Sunny 75 24 70 21 83 83 WSW 5 7 30.00 1016 10 16 0.00 0.00
8:15 am 08:15 Sunny 77 25 70 21 79 79 W 5 7 30.00 1016 10 16 0.00 0.00
8:35 am 08:35 Sunny 77 25 70 21 79 79 W 5 7 30.00 1016 10 16 0.00 0.00
8:55 am 08:55 Sunny 79 26 70 21 74 74 WNW 10 17 30.00 1016 10 16 0.00 0.00
9:15 am 09:15 Partly Cloudy 79 26 70 21 74 74 NW 14 22 30.00 1016 10 16 0.00 0.00
9:35 am 09:35 Partly Cloudy 81 27 70 21 70 70 WNW 12 19 30.00 1016 10 16 0.00 0.00
9:55 am 09:55 Sunny 81 27 70 21 70 70 NW 18 30 30.00 1016 10 16 0.00 0.00
10:15 am 10:15 Sunny 81 27 70 21 70 70 WNW 14 22 30.00 1016 10 16 0.00 0.00
10:35 am 10:35 Sunny 81 27 70 21 70 70 WNW 12 19 30.00 1016 10 16 0.00 0.00
10:55 am 10:55 Sunny 81 27 70 21 70 70 WNW 12 19 30.00 1016 10 16 0.00 0.00
11:15 am 11:15 Partly Cloudy with Light Rain 81 27 70 21 70 70 WNW 13 20 30.03 1017 10 16 0.00 0.00
11:35 am 11:35 Sunny 81 27 70 21 70 70 NW 15 24 30.00 1016 10 16 0.00 0.00
11:55 am 11:55 Sunny 81 27 70 21 70 70 W 10 17 30.00 1016 10 16 0.00 0.00
12:15 pm 12:15 Partly Cloudy 82 28 72 22 70 70 W 9 15 30.03 1017 10 16 0.00 0.00
12:35 pm 12:35 Sunny 82 28 72 22 70 70 WNW 10 17 30.00 1016 10 16 0.00 0.00
12:55 pm 12:55 Partly Cloudy 81 27 72 22 74 74 W 9 15 30.03 1017 10 16 0.00 0.00
1:15 pm 13:15 Sunny 81 27 72 22 74 74 WNW 10 17 30.00 1016 10 16 0.00 0.00
1:35 pm 13:35 Sunny 81 27 72 22 74 74 WSW 7 11 30.00 1016 10 16 0.00 0.00
1:55 pm 13:55 Partly Cloudy 81 27 72 22 74 74 WSW 7 11 30.00 1016 10 16 0.00 0.00
2:15 pm 14:15 Partly Cloudy 82 28 72 22 70 70 W 6 9 30.00 1016 10 16 0.00 0.00
2:35 pm 14:35 Mostly Cloudy 82 28 72 22 70 70 WNW 10 17 30.00 1016 10 16 0.00 0.00
2:55 pm 14:55 Partly Cloudy 82 28 72 22 70 70 W 8 13 30.00 1016 10 16 0.00 0.00
3:15 pm 15:15 Mostly Cloudy 82 28 72 22 70 70 WNW 12 19 30.00 1016 10 16 0.00 0.00
3:35 pm 15:35 Mostly Cloudy 82 28 72 22 70 70 WNW 12 19 30.00 1016 10 16 0.00 0.00
3:55 pm 15:55 Mostly Cloudy 84 29 70 21 62 62 WNW 12 19 29.97 1015 10 16 0.00 0.00
4:15 pm 16:15 Mostly Cloudy 82 28 72 22 70 70 W 9 15 29.97 1015 10 16 0.00 0.00
4:35 pm 16:35 Mostly Cloudy 86 30 72 22 62 62 W 10 17 29.94 1014 10 16 0.00 0.00
4:55 pm 16:55 Partly Cloudy 86 30 72 22 62 62 W 13 20 29.94 1014 10 16 0.00 0.00
5:15 pm 17:15 Partly Cloudy 82 28 70 21 66 66 W 12 19 29.97 1015 10 16 0.00 0.00
5:35 pm 17:35 Partly Cloudy 82 28 70 21 66 66 WNW 13 20 29.97 1015 10 16 0.00 0.00
5:55 pm 17:55 Mostly Cloudy 82 28 70 21 66 66 W 10 17 29.97 1015 10 16 0.00 0.00
6:15 pm 18:15 Cloudy 82 28 72 22 70 70 WNW 13 20 29.97 1015 10 16 0.00 0.00
6:35 pm 18:35 Mostly Cloudy 82 28 72 22 70 70 WNW 7 11 29.97 1015 10 16 0.00 0.00
6:55 pm 18:55 Mostly Cloudy 81 27 70 21 70 70 NNW 7 11 29.97 1015 10 16 0.00 0.00
7:15 pm 19:15 Cloudy 81 27 70 21 70 70 WNW 12 19 30.00 1016 10 16 0.00 0.00
7:35 pm 19:35 Cloudy with Light Rain 79 26 70 21 74 74 W 8 13 30.00 1016 10 16 0.00 0.00
7:55 pm 19:55 Mostly Cloudy 77 25 70 21 79 79 WNW 9 15 30.00 1016 10 16 0.00 0.00
8:15 pm 20:15 Cloudy with Rain 73 23 70 21 89 89 W 5 7 30.00 1016 10 16 0.00 0.00
8:35 pm 20:35 Cloudy 73 23 70 21 89 89 SW 5 7 30.00 1016 10 16 0.00 0.00
8:55 pm 20:55 Cloudy 73 23 70 21 89 89 WSW 5 7 30.03 1017 10 16 0.00 0.00
9:15 pm 21:15 Cloudy 72 22 70 21 94 94 WSW 5 7 30.03 1017 10 16 0.00 0.00
9:35 pm 21:35 Cloudy 72 22 70 21 94 94 Calm 30.03 1017 10 16 0.00 0.00
9:55 pm 21:55 Cloudy 72 22 72 22 100 100 WSW 3 6 30.03 1017 10 16 0.00 0.00
10:15 pm 22:15 Cloudy 72 22 72 22 100 100 WSW 5 7 30.03 1017 10 16 0.00 0.00
10:35 pm 22:35 Cloudy 72 22 70 21 94 94 SW 3 6 30.03 1017 10 16 0.00 0.00
10:55 pm 22:55 Partly Cloudy 72 22 70 21 94 94 WSW 3 6 30.03 1017 10 16 0.00 0.00
11:15 pm 23:15 Mostly Cloudy 72 22 72 22 100 100 Calm 30.03 1017 10 16 0.00 0.00
11:35 pm 23:35 Mostly Cloudy 72 22 72 22 100 100 Calm 30.03 1017 10 16 0.00 0.00
11:55 pm 23:55 Partly Cloudy 72 22 70 21 94 94 SW 6 9 30.03 1017 10 16 0.00 0.00

Powered by AerisWeather